Waarnemingen

Advertentie
Mijn weer
Arvika, Zweden (2411): temperatuur & dauwpunt: 19.05.2019 21:00:00 - 25.05.2019 21:00:00 (CEST)Arvika, Zweden (2411): windsnelheid & windstoten: 19.05.2019 21:00:00 - 25.05.2019 21:00:00 (CEST)Arvika, Zweden (2411): windrichting: 19.05.2019 21:00:00 - 25.05.2019 21:00:00 (CEST)Arvika, Zweden (2411): luchtdruk: 19.05.2019 21:00:00 - 25.05.2019 21:00:00 (CEST)Arvika, Zweden (2411): zicht: 19.05.2019 21:00:00 - 25.05.2019 21:00:00 (CEST)Arvika, Zweden (2411): neerslag: 19.05.2019 21:00:00 - 25.05.2019 21:00:00 (CEST)
Datum & Tijd tt [°C] td [°C] ff [km/u] ff [kn] fx [km/u] fx [kn] dd ppp [hPa] vv [km] rr [mm]
25.05.2019 21:00:00 11,9 11,5 3 2 8 4 ZZO 1002,3 50 1,7
25.05.2019 20:00:00 11,9 11,1 0 0 14 8 N 1003,3 28 1,9
25.05.2019 19:00:00 14,8 9,0 6 3 21 11 Z 1003,4 50 0,0
25.05.2019 18:00:00 16,4 9,8 10 5 18 10 ZO 1003,5 48 0,0
25.05.2019 17:00:00 17,3 7,1 11 6 24 13 Z 1004,2 46 0,0
25.05.2019 16:00:00 15,0 9,8 3 1 15 8 ZZW 1005,0 11 0,5
25.05.2019 15:00:00 14,9 9,0 8 5 21 11 Z 1005,4 30 0,0
25.05.2019 14:00:00 17,2 7,3 7 4 13 7 ZZW 1005,6 47 0,0
25.05.2019 13:00:00 17,4 8,0 4 2 16 8 WZW 1006,1 50 0,0
25.05.2019 12:00:00 16,2 8,2 8 4 25 14 W 1006,5 50 0,0
25.05.2019 11:00:00 14,7 8,2 4 2 13 7 ZO 1006,6 50 0,0
25.05.2019 10:00:00 14,4 9,4 5 3 17 9 N 1006,6 46 0,0
25.05.2019 09:00:00 12,9 8,6 8 5 18 10 NNW 1006,5 43 0,0
25.05.2019 08:00:00 11,8 8,5 5 3 13 7 WNW 1006,4 42 0,0
25.05.2019 07:00:00 9,5 8,1 5 3 12 6 NW 1006,4 49 0,0
25.05.2019 06:00:00 4,4 4,4 2 1 8 4 NNW 1006,3 18 0,0
25.05.2019 05:00:00 2,7 2,7 0 0 3 2 N 1005,9 0,7 0,0
25.05.2019 04:00:00 3,6 3,6 0 0 3 1 N 1005,6 0,4 0,0
25.05.2019 03:00:00 4,5 4,4 0 0 4 2 N 1005,2 0,6 0,0
25.05.2019 02:00:00 6,3 6,2 0 0 5 3 N 1004,7 14 0,0
25.05.2019 01:00:00 6,3 6,2 0 0 3 2 N 1004,8 1,9 0,0
25.05.2019 00:00:00 6,1 6,0 0 0 3 2 N 1004,6 0,9 0,0
24.05.2019 23:00:00 8,0 7,7 0 0 4 2 N 1004,0 1,1 0,0
24.05.2019 22:00:00 9,8 8,9 3 2 8 5 NW 1003,7 50 0,0
24.05.2019 21:00:00 10,6 9,4 3 2 9 5 NW 1003,1 46 0,0
24.05.2019 20:00:00 11,0 9,4 4 2 10 5 NNW 1003,0 40 0,0
24.05.2019 19:00:00 11,1 9,4 0 0 - - N 1002,7 50 0,1
24.05.2019 18:00:00 11,4 9,3 0 0 6 3 N 1002,9 31 0,0
24.05.2019 17:00:00 10,8 9,4 2 1 8 4 ZZO 1002,8 38 0,1
24.05.2019 16:00:00 10,3 9,1 5 3 13 7 Z 1003,1 13 1,0
24.05.2019 15:00:00 11,0 9,1 6 3 20 11 Z 1002,9 16 0,2
24.05.2019 14:00:00 11,6 9,5 6 3 16 9 ZZO 1003,1 48 0,0
24.05.2019 13:00:00 11,1 9,7 7 4 18 10 ZO 1003,4 41 0,5
24.05.2019 12:00:00 10,1 8,9 8 5 19 10 ZO 1004,0 17 0,6
24.05.2019 11:00:00 10,1 8,7 7 4 16 9 ZZO 1004,6 20 0,3
24.05.2019 10:00:00 9,8 8,4 9 5 17 9 ZZO 1004,8 17 1,3
24.05.2019 09:00:00 9,5 8,6 5 3 10 5 ZO 1005,3 12 1,3
24.05.2019 08:00:00 9,6 8,7 0 0 6 4 N 1005,8 9 1,2
24.05.2019 07:00:00 10,0 8,3 3 1 11 6 Z 1006,1 31 0,1
24.05.2019 06:00:00 10,4 7,6 5 3 11 6 ZO 1006,7 47 0,1
24.05.2019 05:00:00 9,5 6,9 2 1 9 5 Z 1007,3 50 0,0
24.05.2019 04:00:00 9,9 6,8 4 2 - - Z 1007,9 50 0,0
24.05.2019 03:00:00 10,1 6,8 3 2 7 4 Z 1008,3 50 0,0
24.05.2019 02:00:00 10,7 7,0 3 1 8 4 Z 1009,1 50 0,0
24.05.2019 01:00:00 11,5 7,0 4 2 11 6 Z 1009,6 50 0,0
24.05.2019 00:00:00 12,5 6,3 8 4 18 10 Z 1009,8 50 0,0
23.05.2019 23:00:00 12,6 7,3 6 3 10 6 Z 1010,0 50 0,0
23.05.2019 22:00:00 13,2 6,8 6 3 11 6 Z 1010,2 50 0,0
23.05.2019 21:00:00 14,3 5,9 5 3 10 6 Z 1010,0 50 0,0
23.05.2019 20:00:00 14,8 5,8 5 3 12 7 Z 1010,4 50 0,0
23.05.2019 19:00:00 15,0 5,8 5 3 17 9 Z 1010,5 50 0,0
23.05.2019 18:00:00 15,1 5,6 4 2 16 9 WZW 1010,9 50 0,0
23.05.2019 17:00:00 15,2 6,2 9 5 21 12 ZZW 1011,2 50 0,0
23.05.2019 16:00:00 16,1 5,7 8 5 27 14 ZW 1011,5 50 0,0
23.05.2019 15:00:00 16,3 6,1 14 7 23 13 Z 1011,5 39 0,0
23.05.2019 14:00:00 15,0 6,5 6 3 21 11 WZW 1012,2 47 0,0
23.05.2019 13:00:00 14,3 5,9 6 4 20 11 ZW 1012,4 46 0,0
23.05.2019 12:00:00 13,3 6,6 8 4 23 13 ZW 1012,5 50 0,0
23.05.2019 11:00:00 12,5 6,8 8 4 27 14 ZW 1012,5 45 0,0
23.05.2019 10:00:00 12,9 6,5 6 4 23 12 ZW 1012,1 - 0,0
23.05.2019 09:00:00 12,2 6,3 6 3 18 10 ZZW 1012,0 - 0,0
23.05.2019 08:00:00 11,2 4,9 6 4 24 13 WZW 1011,9 - 0,0
23.05.2019 07:00:00 11,1 4,1 6 4 16 9 ZW 1011,6 - 0,0
23.05.2019 06:00:00 11,0 6,5 5 3 16 8 ZZW 1011,3 - 0,0
23.05.2019 05:00:00 11,5 7,6 5 3 20 11 ZW 1011,0 - 0,0
23.05.2019 04:00:00 12,2 8,1 8 5 16 9 ZW 1010,9 - 0,0
23.05.2019 03:00:00 12,8 9,4 5 3 16 9 ZZW 1010,6 - 0,0
23.05.2019 02:00:00 13,2 10,6 9 5 21 11 ZZW 1010,3 - 0,0
23.05.2019 01:00:00 14,9 11,5 10 5 22 12 ZZW 1009,7 - 0,0
23.05.2019 00:00:00 16,4 12,2 5 3 12 6 ZW 1009,2 - 0,0
22.05.2019 23:00:00 17,4 12,7 4 2 14 8 ZW 1008,9 - 0,0
22.05.2019 22:00:00 18,4 13,9 6 3 17 9 ZW 1008,6 - 0,0
22.05.2019 21:00:00 20,0 14,6 3 2 13 7 ZZW 1008,0 - 0,0
22.05.2019 20:00:00 21,2 14,1 8 4 16 9 ZZO 1007,4 - 0,0
22.05.2019 19:00:00 21,8 13,9 10 5 23 12 Z 1007,6 - 0,0
22.05.2019 18:00:00 23,0 13,5 14 8 27 14 Z 1007,4 - 0,0
22.05.2019 17:00:00 24,1 12,7 14 8 26 14 Z 1007,7 - 0,0
22.05.2019 16:00:00 24,7 13,3 13 7 28 15 ZZO 1008,1 - 0,0
22.05.2019 15:00:00 23,5 13,7 14 8 24 13 ZO 1008,4 - 0,0
22.05.2019 14:00:00 22,7 14,0 7 4 22 12 ZO 1008,7 - 0,0
22.05.2019 13:00:00 22,9 13,7 13 7 24 13 ZO 1009,1 - 0,0
22.05.2019 12:00:00 22,2 13,8 9 5 19 11 ZO 1009,3 - 0,0
22.05.2019 11:00:00 21,3 13,7 9 5 21 12 O 1009,4 - 0,0
22.05.2019 10:00:00 20,6 13,8 7 4 18 10 O 1009,6 - 0,0
22.05.2019 09:00:00 19,5 13,0 9 5 19 11 ZO 1009,8 - 0,0
22.05.2019 08:00:00 18,2 13,1 10 5 22 12 OZO 1009,8 - 0,0
22.05.2019 07:00:00 17,1 12,8 5 3 13 7 ZO 1009,9 - 0,0
22.05.2019 06:00:00 15,2 12,3 3 2 - - OZO 1009,8 - 0,0
22.05.2019 05:00:00 15,1 12,4 5 3 11 6 ZO 1009,6 - 0,0
22.05.2019 04:00:00 14,4 12,1 4 2 10 6 ZO 1009,5 - 0,0
22.05.2019 03:00:00 16,2 12,7 4 2 15 8 ZO 1009,4 - 0,0
22.05.2019 02:00:00 17,3 13,0 6 3 14 7 O 1009,4 - 0,0
22.05.2019 01:00:00 17,6 13,5 5 3 13 7 ZO 1009,6 - 0,0
22.05.2019 00:00:00 18,2 13,7 3 2 19 10 ZZO 1009,4 - 0,0
21.05.2019 23:00:00 19,5 13,9 7 4 17 9 O 1009,2 - 0,0
21.05.2019 22:00:00 - - - - 16 8 - - - -
21.05.2019 21:00:00 18,4 16,0 5 3 8 4 N 1009,1 - 0,0
21.05.2019 20:00:00 20,5 15,1 5 3 16 8 ONO 1009,0 - 0,0
21.05.2019 19:00:00 22,2 14,1 9 5 18 10 ZO 1009,1 - 0,0
21.05.2019 18:00:00 23,3 14,3 11 6 22 12 ZO 1009,0 - 0,0
21.05.2019 17:00:00 22,0 15,8 2 1 16 8 WZW 1009,1 - 0,0
21.05.2019 16:00:00 23,6 15,9 10 6 19 10 O 1009,4 - 0,0
21.05.2019 15:00:00 22,0 14,9 10 5 21 11 N 1009,8 - 0,0
21.05.2019 14:00:00 23,8 14,5 8 4 19 10 OZO 1009,9 - 0,0
21.05.2019 13:00:00 23,1 15,7 8 4 23 12 ONO 1009,9 - 0,0
21.05.2019 12:00:00 22,8 15,1 11 6 23 12 O 1010,2 - 0,0
21.05.2019 11:00:00 22,5 15,1 10 5 21 11 OZO 1010,2 - 0,0
21.05.2019 10:00:00 21,3 16,5 7 4 14 8 NO 1010,5 - 0,0
21.05.2019 09:00:00 20,2 15,6 0 0 5 3 N 1010,7 - 0,0
21.05.2019 08:00:00 15,6 15,6 3 2 7 4 ZZO 1010,8 - 0,0
21.05.2019 07:00:00 12,0 12,0 0 0 2 1 N 1010,7 - 0,0
21.05.2019 06:00:00 9,5 9,5 0 0 - - N 1011,0 - 0,0
21.05.2019 05:00:00 8,0 8,0 0 0 - - N 1010,8 - 0,0
21.05.2019 04:00:00 8,3 8,3 0 0 2 1 N 1010,6 - 0,0
21.05.2019 03:00:00 9,2 9,2 0 0 4 2 N 1010,5 - 0,0
21.05.2019 02:00:00 9,9 9,7 0 0 - - N 1010,6 - 0,0
21.05.2019 01:00:00 10,6 10,6 0 0 3 2 N 1010,4 - 0,0
21.05.2019 00:00:00 11,7 11,5 0 0 5 3 N 1010,3 - 0,0
20.05.2019 23:00:00 12,9 12,7 0 0 4 2 N 1010,1 - 0,0
20.05.2019 22:00:00 - - - - 2 1 - - - -
20.05.2019 21:00:00 17,0 15,0 0 0 11 6 N 1009,7 - 0,0
20.05.2019 20:00:00 18,4 15,3 6 4 - - N 1009,3 - 0,0
20.05.2019 19:00:00 18,8 15,5 10 5 16 8 N 1009,1 - 0,0
20.05.2019 18:00:00 18,7 15,4 5 3 14 8 N 1009,6 - 0,0
20.05.2019 17:00:00 19,1 15,0 6 4 17 9 ONO 1009,6 - 0,0
20.05.2019 16:00:00 18,3 14,8 6 3 13 7 NNO 1009,9 - 0,0
20.05.2019 15:00:00 17,1 14,2 8 5 23 13 N 1010,1 - 0,0
20.05.2019 14:00:00 16,8 13,5 9 5 19 10 NNO 1010,3 - 0,0
20.05.2019 13:00:00 15,8 13,8 4 2 17 9 NNW 1010,4 - 0,0
20.05.2019 12:00:00 14,1 12,7 10 6 21 11 NNW 1010,4 - 0,0
20.05.2019 11:00:00 13,1 12,0 9 5 18 10 N 1011,0 - 1,2
20.05.2019 10:00:00 12,1 11,5 5 3 9 5 N 1011,6 - 1,5
20.05.2019 09:00:00 11,9 11,4 3 2 9 5 NW 1011,9 - 0,5
20.05.2019 08:00:00 11,3 11,1 0 0 6 4 N 1012,0 - 0,0
20.05.2019 07:00:00 10,8 10,6 0 0 8 4 N 1012,0 - 0,0
20.05.2019 06:00:00 9,5 9,4 0 0 4 2 N 1011,9 - 0,0
20.05.2019 05:00:00 8,7 8,6 0 0 5 3 N 1012,4 - 0,0
20.05.2019 04:00:00 7,9 7,9 0 0 2 1 N 1012,7 - 0,2
20.05.2019 03:00:00 7,4 7,3 0 0 4 2 N 1013,3 - 0,0
20.05.2019 02:00:00 7,6 7,5 0 0 3 1 N 1013,7 - 0,0
20.05.2019 01:00:00 7,8 7,7 0 0 4 2 N 1014,1 - 0,0
20.05.2019 00:00:00 8,2 8,1 0 0 6 4 N 1014,1 - 0,0
19.05.2019 23:00:00 8,6 8,5 2 1 5 3 N 1014,0 - 0,0
19.05.2019 22:00:00 10,7 10,4 2 1 - - NNW 1013,8 - 0,0
19.05.2019 21:00:00 13,3 12,0 0 0 4 2 N 1013,5 - 0,0

tt = temperatuur
td = dauwpunt
ff = windsnelheid
fx = windstoten
dd = windrichting
ppp = luchtdruk
vv = zicht
rr = neerslag

Weerstations in de omgeving